Weather History for KBTR - January, 2013

Change the Weather History Date:

Saturday, January 5, 2013

  Actual Average Record
Temperature  
Mean Temperature 49 °F 52 °F  
Max Temperature 54 °F 62 °F 79 °F (2005)
Min Temperature 43 °F 41 °F 20 °F (1999)
Degree Days  
Heating Degree Days 16 14  
Month to date heating degree days 85 70  
Since 1 July heating degree days 662 686  
Cooling Degree Days 0 0  
Month to date cooling degree days 0 2  
Year to date cooling degree days 0 2  
Moisture  
Dew Point 37 °F    
Average Humidity 66    
Maximum Humidity 86    
Minimum Humidity 46    
Precipitation  
Precipitation 0.04 in 0.18 in 2.65 in (1962)
Month to date precipitation 1.54 0.87  
Year to date precipitation 1.54 0.87  
Snow  
Snow 0.00 in - - ()
Month to date snowfall 0.0  
Since 1 July snowfall 0.0  
Snow Depth 0.00 in    
Sea Level Pressure  
Sea Level Pressure 30.30 in    
Wind  
Wind Speed 6 mph (NE)    
Max Wind Speed 12 mph    
Max Gust Speed 16 mph    
Visibility 10 miles    
Events Rain    
T = Trace of Precipitation, MM = Missing Value Source: NWS Daily Summary

Daily Weather History Graph

Daily Weather History Graph

Search for Another Location

Airport or City:

Trip Planner

Search our weather history database for the weather conditions in past years. The results will help you decide how hot, cold, wet, or windy it might be!

Date:

Astronomy

Jan. 05, 2013 Rise Set
Actual Time 7:02 AM CST 5:18 PM CST
Civil Twilight 6:36 AM CST 5:44 PM CST
Nautical Twilight 6:06 AM CST 6:14 PM CST
Astronomical Twilight 5:37 AM CST 6:43 PM CST
Moon 12:23 AM CST (1/5) 11:55 AM CST (1/5)
Length of Visible Light 11h 08m
Length of Day
10h 15m
Last Quarter, 44% of the Moon is Illuminated
Jan 5
Last Quarter
Jan 11
New
Jan 18
First Quarter
Jan 26
Full
Feb 3
Last Quarter

Hourly Weather History & Observations

Time (CST) Temp. Windchill Dew Point Humidity Pressure Visibility Wind Dir Wind Speed Gust Speed Precip Events Conditions
12:53 AM 44.1 °F 40.8 °F 32.0 °F 63% 30.33 in 10.0 mi East 5.8 mph - N/A   Scattered Clouds
1:53 AM 45.0 °F 40.6 °F 32.0 °F 60% 30.32 in 10.0 mi East 8.1 mph - N/A   Overcast
2:53 AM 46.0 °F 43.9 °F 30.9 °F 56% 30.33 in 10.0 mi NNE 4.6 mph - N/A   Overcast
3:53 AM 44.1 °F 41.5 °F 32.0 °F 63% 30.33 in 10.0 mi NNE 4.6 mph - N/A   Clear
4:53 AM 44.1 °F - 33.1 °F 65% 30.34 in 10.0 mi Calm Calm - N/A   Overcast
5:53 AM 44.1 °F 42.5 °F 33.1 °F 65% 30.34 in 10.0 mi NE 3.5 mph - N/A   Mostly Cloudy
6:53 AM 44.1 °F 41.5 °F 32.0 °F 63% 30.36 in 10.0 mi NNE 4.6 mph - N/A   Overcast
7:53 AM 45.0 °F 42.6 °F 32.0 °F 60% 30.38 in 10.0 mi NNE 4.6 mph - N/A   Mostly Cloudy
8:53 AM 46.0 °F 42.5 °F 33.1 °F 61% 30.38 in 10.0 mi NE 6.9 mph - N/A   Overcast
9:53 AM 48.0 °F - 33.1 °F 56% 30.37 in 10.0 mi NE 8.1 mph - N/A   Overcast
10:53 AM 51.1 °F - 33.1 °F 50% 30.35 in 10.0 mi NE 5.8 mph - N/A   Overcast
11:53 AM 52.0 °F - 33.1 °F 49% 30.33 in 10.0 mi ENE 6.9 mph - N/A   Overcast
12:53 PM 53.1 °F - 34.0 °F 48% 30.29 in 10.0 mi ENE 6.9 mph - N/A   Overcast
1:53 PM 54.0 °F - 33.1 °F 45% 30.28 in 10.0 mi NNE 6.9 mph - N/A   Overcast
2:53 PM 54.0 °F - 33.1 °F 45% 30.27 in 10.0 mi NE 9.2 mph - N/A   Overcast
3:53 PM 53.1 °F - 35.1 °F 50% 30.27 in 10.0 mi NNE 4.6 mph - N/A   Overcast
4:53 PM 46.9 °F - 41.0 °F 80% 30.25 in 6.0 mi ENE 10.4 mph - 0.03 in Rain Light Rain
5:53 PM 46.0 °F 42.5 °F 42.1 °F 86% 30.26 in 10.0 mi NNE 6.9 mph - 0.01 in   Overcast
6:53 PM 46.0 °F 43.1 °F 43.0 °F 89% 30.27 in 10.0 mi NNE 5.8 mph - N/A   Overcast
7:53 PM 46.0 °F 42.5 °F 43.0 °F 89% 30.27 in 10.0 mi NNE 6.9 mph - N/A   Overcast
8:53 PM 46.0 °F 42.5 °F 43.0 °F 89% 30.26 in 10.0 mi NE 6.9 mph - N/A   Overcast
9:00 PM 46.4 °F 44.3 °F 42.8 °F 87% 30.26 in 10.0 mi NE 4.6 mph - N/A   Overcast
9:53 PM 46.0 °F 43.1 °F 43.0 °F 89% 30.25 in 10.0 mi ENE 5.8 mph - N/A   Overcast
10:01 PM 46.4 °F 42.9 °F 42.8 °F 87% 30.25 in 10.0 mi ENE 6.9 mph - N/A   Overcast
10:08 PM 46.4 °F 42.4 °F 42.8 °F 87% 30.25 in 10.0 mi ENE 8.1 mph - N/A   Overcast
10:53 PM 46.0 °F 43.9 °F 43.0 °F 89% 30.24 in 10.0 mi NE 4.6 mph - 0.00 in Rain Light Rain
11:37 PM 46.4 °F 45.2 °F 44.6 °F 93% 30.24 in 10.0 mi NNE 3.5 mph - 0.00 in   Overcast
11:53 PM 46.0 °F 43.9 °F 43.0 °F 89% 30.23 in 7.0 mi NE 4.6 mph - 0.00 in   Overcast